Nuiqsut, AK

4:22 AM AKST on December 10, 2016 (GMT -0900)
Nuiqsut

Weather History for PAQT - November, 2012

Change the Weather History Date:

Thursday, November 15, 2012

  Actual Average (PAKU) Record (PAKU)
Temperature  
Mean Temperature 4 °F -  
Max Temperature 7 °F 4 °F 33 °F (2012)
Min Temperature 0 °F -1 °F -28 °F (1991)
Degree Days  
Heating Degree Days 62    
Moisture  
Dew Point 1 °F    
Average Humidity 88    
Maximum Humidity 92    
Minimum Humidity 83    
Precipitation  
Precipitation 0.00 in - - ()
Sea Level Pressure  
Sea Level Pressure 30.23 in    
Wind  
Wind Speed 21 mph (WSW)    
Max Wind Speed 25 mph    
Max Gust Speed -    
Visibility 3 miles    
Events Fog , Snow    
Averages and records for this station are not official NWS values.
T = Trace of Precipitation, MM = Missing Value Source: NWS Daily Summary

Daily Weather History Graph

Daily Weather History Graph

Search for Another Location

Airport or City:

Trip Planner

Search our weather history database for the weather conditions in past years. The results will help you decide how hot, cold, wet, or windy it might be!

Date:

Astronomy

Nov. 15, 2012 Rise Set
Actual Time 11:04 AM AKST 2:32 PM AKST
Civil Twilight 9:20 AM AKST 4:15 PM AKST
Nautical Twilight 7:56 AM AKST 5:39 PM AKST
Astronomical Twilight 6:43 AM AKST 6:52 PM AKST
Moon No Moon Rise No Moon Set
Length of Visible Light 6h 54m
Length of Day
3h 28m
Waxing Crescent, 6% of the Moon is Illuminated
Nov 15
Waxing Crescent
Nov 20
First Quarter
Nov 28
Full
Dec 6
Last Quarter
Dec 12
New

Hourly Weather History & Observations

Time (AKST) Temp. Windchill Dew Point Humidity Pressure Visibility Wind Dir Wind Speed Gust Speed Precip Events Conditions
12:15 AM 1.4 °F -21.4 °F -2.2 °F 85% 30.25 in 1.0 mi WSW 23.0 mph - 0.00 in Snow Light Snow
12:39 AM 1.4 °F -21.4 °F -2.2 °F 85% 30.24 in 0.8 mi SW 23.0 mph - 0.00 in Snow Light Snow
12:53 AM -0.0 °F -24.3 °F -2.9 °F 88% 30.24 in 0.5 mi WSW 25.3 mph - 0.00 in Fog , Snow Light Snow
1:12 AM -0.4 °F -23.8 °F -2.2 °F 92% 30.24 in 1.0 mi SW 23.0 mph - 0.00 in   Overcast
1:53 AM -0.0 °F -23.3 °F -2.9 °F 88% 30.24 in 1.0 mi SW 23.0 mph - 0.00 in Snow Light Snow
2:06 AM -0.4 °F -23.3 °F -2.2 °F 92% 30.23 in 0.8 mi SW 21.9 mph - 0.00 in Snow Light Snow
2:30 AM 1.4 °F -21.9 °F -2.2 °F 85% 30.23 in 1.0 mi WSW 24.2 mph - 0.00 in Snow Light Snow
2:37 AM 1.4 °F -21.4 °F -2.2 °F 85% 30.22 in 0.8 mi WSW 23.0 mph - 0.00 in Snow Light Snow
3:53 AM 1.9 °F -21.2 °F -0.9 °F 88% 30.22 in 0.5 mi WSW 24.2 mph - 0.00 in Fog , Snow Light Snow
4:53 AM 1.9 °F -20.7 °F -0.9 °F 88% 30.22 in 0.8 mi WSW 23.0 mph - 0.00 in Snow Light Snow
5:01 AM 1.4 °F -21.4 °F -0.4 °F 92% 30.21 in 0.8 mi WSW 23.0 mph - 0.00 in Snow Light Snow
5:09 AM 1.4 °F -21.0 °F -0.4 °F 92% 30.20 in 1.0 mi WSW 21.9 mph - 0.00 in Snow Light Snow
5:28 AM 1.4 °F -21.4 °F -0.4 °F 92% 30.20 in 1.2 mi WSW 23.0 mph - 0.00 in Snow Blowing Snow
5:49 AM 3.2 °F -19.9 °F -0.4 °F 85% 30.20 in 0.8 mi WSW 25.3 mph - 0.00 in Snow Light Snow
5:53 AM 3.0 °F -19.7 °F -0.0 °F 87% 30.20 in 1.0 mi WSW 24.2 mph - 0.00 in Snow Light Snow
6:53 AM 3.9 °F -16.6 °F 1.0 °F 88% 30.20 in 1.8 mi WSW 19.6 mph - 0.00 in Snow Light Snow
7:07 AM 3.2 °F -18.6 °F 1.4 °F 92% 30.20 in 2.0 mi WSW 21.9 mph - 0.00 in Snow Light Snow
7:19 AM 3.2 °F -18.1 °F 1.4 °F 92% 30.19 in 2.0 mi WSW 20.7 mph - 0.00 in Snow Light Snow
7:35 AM 5.0 °F -15.2 °F 1.4 °F 85% 30.19 in 3.0 mi WSW 19.6 mph - 0.00 in Snow Blowing Snow
7:53 AM 5.0 °F -15.2 °F 1.9 °F 87% 30.20 in 3.0 mi WSW 19.6 mph - 0.00 in Snow Blowing Snow
8:33 AM 5.0 °F -16.2 °F 3.2 °F 92% 30.20 in 2.5 mi WSW 21.9 mph - 0.00 in Snow Blowing Snow
8:40 AM 6.8 °F -12.9 °F 3.2 °F 85% 30.20 in 3.0 mi WSW 19.6 mph - 0.00 in Snow Blowing Snow
8:51 AM 6.8 °F -14.3 °F 3.2 °F 85% 30.20 in 2.0 mi WSW 23.0 mph - 0.00 in   Overcast
8:53 AM 6.1 °F -14.8 °F 3.0 °F 87% 30.21 in 2.0 mi WSW 21.9 mph - 0.00 in Snow Light Snow
9:42 AM 6.8 °F -13.8 °F 3.2 °F 85% 30.20 in 1.5 mi WSW 21.9 mph - 0.00 in Snow Light Snow
9:53 AM 6.1 °F -14.8 °F 3.9 °F 91% 30.21 in 1.5 mi WSW 21.9 mph - 0.00 in Snow Light Snow
10:04 AM 6.8 °F -12.9 °F 3.2 °F 85% 30.20 in 2.0 mi WSW 19.6 mph - 0.00 in Snow Light Snow
10:26 AM 6.8 °F -13.4 °F 3.2 °F 85% 30.20 in 1.8 mi WSW 20.7 mph - 0.00 in Snow Light Snow
10:34 AM 6.8 °F -13.4 °F 3.2 °F 85% 30.21 in 2.0 mi WSW 20.7 mph - 0.00 in Snow Light Snow
10:50 AM 6.8 °F -13.4 °F 3.2 °F 85% 30.21 in 2.5 mi WSW 20.7 mph - 0.00 in Snow Light Snow
10:53 AM 7.0 °F -12.6 °F 3.9 °F 87% 30.22 in 2.5 mi WSW 19.6 mph - 0.00 in Snow Light Snow
11:04 AM 6.8 °F -12.4 °F 3.2 °F 85% 30.21 in 1.2 mi WSW 18.4 mph - 0.00 in Snow Light Snow
11:16 AM 6.8 °F -13.4 °F 3.2 °F 85% 30.21 in 0.5 mi WSW 20.7 mph - 0.00 in Fog , Snow Light Snow
11:53 AM 6.1 °F -14.8 °F 3.9 °F 91% 30.22 in 0.5 mi WSW 21.9 mph - 0.00 in Fog , Snow Light Snow
12:16 PM 5.0 °F -15.2 °F 3.2 °F 92% 30.22 in 1.0 mi West 19.6 mph - 0.00 in Snow Light Snow
12:43 PM 5.0 °F -14.2 °F 3.2 °F 92% 30.23 in 2.5 mi West 17.3 mph - 0.00 in Snow Light Snow
12:53 PM 3.9 °F -14.3 °F 1.9 °F 91% 30.23 in 2.0 mi West 15.0 mph - 0.00 in Snow Light Snow
1:30 PM 3.2 °F -17.6 °F 1.4 °F 92% 30.23 in 1.5 mi West 19.6 mph - 0.00 in Snow Light Snow
1:53 PM 3.9 °F -15.6 °F 1.0 °F 88% 30.23 in 1.8 mi WSW 17.3 mph - 0.00 in Snow Light Snow
2:01 PM 3.2 °F -17.1 °F 1.4 °F 92% 30.23 in 2.5 mi West 18.4 mph - 0.00 in Snow Blowing Snow
2:10 PM 3.2 °F -16.5 °F 1.4 °F 92% 30.23 in 4.0 mi WSW 17.3 mph - 0.00 in Snow Blowing Snow
2:49 PM 3.2 °F -15.9 °F -0.4 °F 85% 30.23 in 1.8 mi WSW 16.1 mph - 0.00 in Snow Blowing Snow
2:53 PM 3.0 °F -16.1 °F -0.0 °F 87% 30.24 in 2.0 mi WSW 16.1 mph - 0.00 in Snow Blowing Snow
3:03 PM 3.2 °F -15.3 °F 1.4 °F 92% 30.23 in 7.0 mi WSW 15.0 mph - N/A   Overcast
3:53 PM 3.9 °F -12.2 °F 1.0 °F 88% 30.24 in 10.0 mi West 11.5 mph - N/A   Overcast
4:53 PM 5.0 °F -10.8 °F 1.9 °F 87% 30.25 in 10.0 mi WSW 11.5 mph - 0.00 in   Overcast
5:53 PM 6.1 °F -7.8 °F 1.9 °F 83% 30.26 in 10.0 mi West 9.2 mph - 0.00 in   Overcast
6:26 PM 6.8 °F -6.9 °F 3.2 °F 85% 30.26 in 8.0 mi WNW 9.2 mph - 0.00 in Snow Light Snow
6:53 PM 6.1 °F -7.8 °F 3.0 °F 87% 30.27 in 10.0 mi West 9.2 mph - 0.00 in   Overcast
7:14 PM 6.8 °F -5.9 °F 3.2 °F 85% 30.28 in 10.0 mi West 8.1 mph - 0.00 in Snow Light Snow
7:53 PM 6.1 °F -7.8 °F 3.0 °F 87% 30.30 in 10.0 mi West 9.2 mph - 0.00 in   Overcast
8:53 PM 6.1 °F -7.8 °F 3.0 °F 87% 30.32 in 3.0 mi West 9.2 mph - 0.00 in Snow Light Snow
9:53 PM 6.1 °F -8.7 °F 3.0 °F 87% 30.33 in 7.0 mi WNW 10.4 mph - 0.00 in   Overcast
10:17 PM 6.8 °F -8.6 °F 3.2 °F 85% 30.33 in 10.0 mi WNW 11.5 mph - N/A   Overcast
10:53 PM 6.1 °F -10.2 °F 3.0 °F 87% 30.35 in 7.0 mi West 12.7 mph - 0.00 in Snow Light Snow
11:53 PM 7.0 °F -9.8 °F 3.9 °F 87% 30.36 in 5.0 mi West 13.8 mph - 0.00 in Snow Light Snow